Cartersville, GA

9:06 AM EDT on October 20, 2017 (GMT -0400)
Cartersville

Weather History for KVPC - April, 2013

Change the Weather History Date:

Saturday, April 20, 2013

  Actual Average Record
Temperature  
Mean Temperature 49 °F 60 °F  
Max Temperature 62 °F 74 °F 88 °F (2002)
Min Temperature 35 °F 47 °F 35 °F (2013)
Degree Days  
Heating Degree Days 16 6  
Month to date heating degree days 134 154  
Since 1 July heating degree days 162 3182  
Cooling Degree Days 0 1  
Month to date cooling degree days 26 9  
Year to date cooling degree days 26 13  
Moisture  
Dew Point 34 °F    
Average Humidity 62    
Maximum Humidity 92    
Minimum Humidity 32    
Precipitation  
Precipitation 0.00 in 0.14 in 1.22 in (1951)
Month to date precipitation 2.37 2.43  
Year to date precipitation 2.95 16.65  
Snow  
Snow 0.00 in - - ()
Month to date snowfall 0.0  
Since 1 July snowfall 0.0  
Snow Depth 0.00 in    
Sea Level Pressure  
Sea Level Pressure 30.19 in    
Wind  
Wind Speed 4 mph (North)    
Max Wind Speed 16 mph    
Max Gust Speed 23 mph    
Visibility 10 miles    
Events      
T = Trace of Precipitation, MM = Missing Value Source: NWS Daily Summary

Daily Weather History Graph

Daily Weather History Graph

Search for Another Location

Airport or City:

Trip Planner

Search our weather history database for the weather conditions in past years. The results will help you decide how hot, cold, wet, or windy it might be!

Date:

Astronomy

Apr. 20, 2013 Rise Set
Actual Time 7:01 AM EDT 8:15 PM EDT
Civil Twilight 6:35 AM EDT 8:41 PM EDT
Nautical Twilight 6:04 AM EDT 9:12 PM EDT
Astronomical Twilight 5:32 AM EDT 9:44 PM EDT
Moon 3:11 PM EDT 3:36 AM EDT
Length of Visible Light 14h 05m
Length of Day
13h 13m
Waxing Gibbous, 71% of the Moon is Illuminated
Apr 20
Waxing Gibbous
Apr 25
Full
May 2
Last Quarter
May 9
New
May 18
First Quarter

Hourly Weather History & Observations

Time (EDT) Temp. Windchill Dew Point Humidity Pressure Visibility Wind Dir Wind Speed Gust Speed Precip Events Conditions
12:53 AM 41.0 °F - 37.9 °F 89% 30.10 in 10.0 mi Calm Calm - N/A   Clear
1:53 AM 42.1 °F 39.2 °F 36.0 °F 79% 30.12 in 10.0 mi Variable 4.6 mph - N/A   Clear
2:53 AM 41.0 °F 38.0 °F 34.0 °F 76% 30.12 in 10.0 mi NW 4.6 mph - N/A   Clear
3:53 AM 39.0 °F - 33.1 °F 79% 30.13 in 10.0 mi Calm Calm - N/A   Clear
4:53 AM 37.9 °F - 33.1 °F 83% 30.14 in 10.0 mi Calm Calm - N/A   Clear
5:53 AM 36.0 °F - 34.0 °F 93% 30.15 in 10.0 mi Calm Calm - N/A   Clear
6:53 AM 35.1 °F - 33.1 °F 92% 30.17 in 10.0 mi Calm Calm - N/A   Clear
7:53 AM 37.0 °F - 34.0 °F 89% 30.19 in 10.0 mi Calm Calm - N/A   Clear
8:53 AM 43.0 °F 40.3 °F 34.0 °F 71% 30.21 in 10.0 mi North 4.6 mph - N/A   Clear
9:53 AM 48.9 °F - 36.0 °F 61% 30.23 in 10.0 mi Calm Calm - N/A   Clear
10:53 AM 53.1 °F - 33.1 °F 47% 30.24 in 10.0 mi Variable 5.8 mph - N/A   Clear
11:53 AM 55.0 °F - 30.0 °F 38% 30.25 in 10.0 mi North 6.9 mph - N/A   Clear
12:53 PM 55.9 °F - 30.9 °F 39% 30.23 in 10.0 mi North 8.1 mph - N/A   Clear
1:53 PM 57.9 °F - 30.9 °F 36% 30.21 in 10.0 mi NNW 12.7 mph 20.7 mph N/A   Clear
2:53 PM 60.1 °F - 32.0 °F 35% 30.20 in 10.0 mi North 9.2 mph 17.3 mph N/A   Clear
3:53 PM 61.0 °F - 34.0 °F 36% 30.19 in 10.0 mi North 11.5 mph 16.1 mph N/A   Clear
4:53 PM 62.1 °F - 33.1 °F 34% 30.18 in 10.0 mi North 9.2 mph - N/A   Clear
5:53 PM 62.1 °F - 34.0 °F 35% 30.18 in 10.0 mi North 10.4 mph 18.4 mph N/A   Clear
6:53 PM 60.1 °F - 30.9 °F 33% 30.18 in 10.0 mi North 5.8 mph - N/A   Clear
7:53 PM 57.0 °F - 33.1 °F 40% 30.18 in 10.0 mi North 5.8 mph - N/A   Clear
8:53 PM 46.9 °F - 37.9 °F 71% 30.21 in 10.0 mi Calm Calm - N/A   Clear
9:53 PM 43.0 °F - 37.9 °F 82% 30.23 in 10.0 mi Calm Calm - N/A   Clear
10:53 PM 42.1 °F - 37.9 °F 85% 30.24 in 10.0 mi Calm Calm - N/A   Clear
11:53 PM 39.9 °F - 37.0 °F 89% 30.25 in 10.0 mi Calm Calm - N/A   Clear